DSCS II F-12

operational
NORAD ID: 11145 Int'l Des: 1978-113 Owner: SAMSO/DCA Country: US
HEOCIRCULAR

关于 DSCS II F-12

正在加载描述...

实时位置

正在加载3D地球...

即将过境

高度历史

Altitude vs Time

uPlot chart will show altitude changes over time

两行轨道根数

1 11145U 78113B 26062.54321362 -.00000234 00000-0 00000-0 0 9994
2 11145 8.4814 303.8688 0002716 183.5504 10.9763 0.98442692116027
Epoch: Mar 3, 2026 • Age: 38 hours

当前状态

高度 36296.4 km
速度 3.06 km/s
星下点 -3.25°S, 134.52°E
发射日期 Dec 14, 1978
运行时间 47.2 years
类型 other

技术详情

分类 Payload
质量 610.00 kg
干质量 550.00 kg
总质量 610.00 kg
长度 3.60 m
直径 2.70 m
跨度 3.60 m
形状 Cyl
制造商 TRW
平台类型 DSCS II
阶段状态 In Orbit
所有者/国家 SAMSO/DCA/US

大型星座

Loading constellations...